Location: Betra
(48.4113°N, 8.6634°E)
Time: 16:48:40
(UTC+00:00)

SL-16 R/B - Pass Details

Date: 23 May 2024
Orbit: 842 x 845 km, 71.0° (Epoch: 16 June)

Event Time Altitude Azimuth Distance (km) Brightness Sun altitude
Rises 01:35:29 0° 328° (NNW) 3,416 5.7 -14.8°
Reaches altitude 10° 01:37:59 10° 324° (NW) 2,477 4.9 -14.6°
Maximum altitude 01:43:30 54° 249° (WSW) 1,027 2.3 -14.1°
Drops below altitude 10° 01:48:58 10° 174° (S) 2,460 4.2 -13.5°
Enters shadow 01:49:01 10° 174° (S) 2,476 4.2 -13.5°
